www.pogodaiklimat.ru

Погода и климат >> Архив погоды >> Финляндия >> Тампере


ПОГОДА в Тампере

  • Прогноз погоды в Тампере
  • Монитор погоды в Тампере

АРХИВ ПОГОДЫ в Тампере

Время (UTC), дата Ветер
(напр.,м/с)
 
Видим.   Явления Облачность Т
(С)
Тd
(С)
f
(%)
Тe
(С)
Тes
(С)
Комфортность P
(гПа)
Po
(гПа)
Тmin
(С)
Tmax
(С)
R
(мм)
R24
(мм)
S
(см)
16 13.09 50 км 5/5 1500 м
[]
+12.8 +5.3 60 1009.1 998.9
17 13.09 50 км 1/1 1000 м
[]
+11.6 +5.9 68 1009.4 999.1
18 13.09 50 км ливневой дождь 4/4 1000 м
[]
+10.5 +6.4 76 1009.7 999.4 +10.5 +15.6
19 13.09 50 км 9/3 1000 м
[]
+10.3 +6.4 77 1009.9 999.6
20 13.09 50 км в посл. час осадки 5/5 1500 м
[]
+9.8 +6.6 80 1010.1 999.8
21 13.09 50 км в посл. час дождь 9/8 1000 м
[]
+9.3 +7.3 87 1010.6 1000.3 0.1
22 13.09 50 км в посл. час осадки 5/5 600 м
[]
+9.4 +7.4 87 1011.0 1000.7
23 13.09 50 км 9/9 1500 м
[]
+9.3 +7.4 88 1011.4 1001.0
00 14.09 50 км 3/3 1000 м
[]
+8.8 +7.0 88 1011.7 1001.4
01 14.09 50 км ясно +7.9 +6.8 93 1012.1 1001.7
02 14.09 50 км ясно +7.7 +6.2 90 1012.4 1002.0
03 14.09 50 км ясно +7.5 +6.0 90 1012.7 1002.3
04 14.09 50 км ясно +7.5 +5.9 90 1012.8 1002.4
05 14.09 50 км 9/9 600 м
[]
+8.2 +6.2 87 1013.1 1002.8
06 14.09 50 км ясно +9.5 +6.4 81 1013.2 1002.8 +6.7 +10.9 0.1
07 14.09 50 км ясно +10.4 +6.6 77 1013.4 1003.1
08 14.09 45 км 8/8 600 м
[]
+11.3 +6.0 70 1013.6 1003.3
09 14.09 45 км 9/9 600 м
[]
+12.7 +5.5 62 1013.8 1003.6
10 14.09 50 км 9/9 1000 м
[]
+12.1 +4.8 61 1013.8 1003.5
11 14.09 40 км 8/8 600 м
[]
+13.0 +6.5 65 1013.8 1003.6
12 14.09 50 км в посл. час дождь 6/3 600 м
[]
+12.6 +5.6 62 1014.1 1003.9
13 14.09 29 км слаб. ливневой дождь 9/8 1000 м
[]
+11.5 +6.6 72 1014.2 1003.9
14 14.09 50 км ясно +11.5 +5.0 64 1014.3 1004.0
15 14.09 50 км в посл. час дождь 9/9 1000 м
[]
+10.9 +5.4 69 1014.3 1004.0
16 14.09 50 км ясно +10.7 +5.2 69 1014.3 1004.0
17 14.09 50 км 3/3 1500 м
[]
+9.8 +5.6 75 1014.3 1004.0
18 14.09 50 км 5/5 1000 м
[]
+8.4 +5.8 84 1014.5 1004.1 +8.1 +13.3 0.2
19 14.09 50 км ясно +6.7 +5.4 91 1014.3 1003.9
20 14.09 50 км 5/0 1000 м
[]
+6.8 +5.2 90 1013.7 1003.3
21 14.09 50 км 9/9 1000 м
[]
+7.6 +5.0 84 1013.1 1002.7
22 14.09 50 км 9/1 1000 м
[]
+6.9 +4.9 87 1012.3 1001.8
23 14.09 50 км 9/0
[]
+6.3 +4.7 89 1011.2 1000.8
00 15.09 50 км 9/9
[]
+6.6 +4.0 83 1009.7 999.3
01 15.09 50 км 9/0
[]
+7.0 +4.3 83 1008.4 998.0
02 15.09 50 км 9/9
[]
+7.6 +4.8 82 1006.4 996.0
03 15.09 8000 м слаб. дождь 10/10 1000 м
[]
+7.5 +6.2 91 1004.3 994.0 0.3
04 15.09 5000 м слаб. дождь 10/0 1000 м
[]
+7.6 +6.8 95 1002.2 991.9 1
05 15.09 4600 м дождь 10/10 200 м
[]
+7.6 +7.0 96 999.9 989.6 2
06 15.09 6000 м дождь 10/10 200 м
[]
+8.2 +7.7 97 996.9 986.7 +6.0 +8.4 6
07 15.09 6000 м слаб. дождь 10/0 200 м
[]
+8.8 +8.3 97 994.7 984.5 1
08 15.09 5000 м дождь 10/10 200 м
[]
+9.5 +9.0 97 992.4 982.2
09 15.09 4100 м слаб. ливневой дождь 10/10 100 м
[]
+10.5 +10.1 97 990.2 980.1 0.8
10 15.09 4400 м слаб. дождь 10/10 200 м
[]
+11.3 +10.8 97 989.0 979.0
11 15.09 50 км слаб. дождь 9/9 300 м
[]
+12.2 +10.9 92 987.7 977.7
12 15.09 50 км 9/8 300 м
[]
+11.7 +10.3 91 987.3 977.3
13 15.09 50 км 8/3 200 м
[]
+12.1 +10.7 91 986.5 976.5
14 15.09 50 км в посл. час осадки 8/8 300 м
[]
+12.6 +9.0 79 986.3 976.3
15 15.09 35 км слаб. ливневой дождь 9/5 600 м
[]
+11.5 +8.3 81 986.6 976.6
16 15.09 50 км 6/3 1000 м
[]
+11.0 +7.8 81 987.3 977.3
17 15.09 50 км 9/9 600 м
[]
+10.6 +7.2 79 987.6 977.6
18 15.09 50 км 3/1 1000 м
[]
+9.7 +6.9 83 987.8 977.8 +8.2 +12.9 5
19 15.09 50 км 1/1
[]
+9.4 +6.2 80 987.8 977.7
20 15.09 40 км слаб. ливневой дождь 9/9 1000 м
[]
+9.3 +6.0 80 987.8 977.8
21 15.09 50 км слаб. ливневой дождь 9/4 1500 м
[]
+8.3 +6.8 90 987.9 977.8 0.5
22 15.09 50 км в посл. час дождь 9/0 1000 м
[]
+8.3 +6.8 90 987.9 977.7 0.1
23 15.09 50 км 9/9 1500 м
[]
+7.8 +6.7 93 988.0 977.8
00 16.09 50 км 4/4 1500 м
[]
+7.0 +6.4 96 988.2 978.0
01 16.09 50 км ясно +7.2 +6.4 95 988.1 978.0
02 16.09 50 км 6/6 600 м
[]
+6.8 +6.1 95 988.3 978.2
03 16.09 50 км 10/10 1000 м
[]
+7.7 +6.5 92 988.3 978.2
04 16.09 50 км 9/9 1000 м
[]
+7.7 +6.3 91 988.2 978.0
05 16.09 50 км 1/1 300 м
[]
+7.4 +6.1 91 988.6 978.4
06 16.09 50 км 10/10 300 м
[]
+7.9 +6.4 90 989.0 978.9 +6.7 +10.1 0.7
07 16.09 50 км 10/0 300 м
[]
+8.2 +6.4 88 989.5 979.4
08 16.09 30 км 10/0 200 м
[]
+8.4 +6.6 88 990.3 980.2
09 16.09 50 км 9/9 300 м
[]
+9.7 +6.8 82 991.1 981.0
10 16.09 45 км ливневой дождь 9/0 300 м
[]
+10.0 +6.6 79 991.8 981.7
11 16.09 35 км слаб. ливневой дождь 10/10 300 м
[]
+9.8 +6.8 82 992.7 982.6
12 16.09 23 км слаб. дождь 10/10 300 м
[]
+9.4 +8.1 92 993.7 983.5 0.5
13 16.09 45 км слаб. ливневой дождь 10/0 600 м
[]
+9.2 +7.7 90 994.2 984.1 0.3
14 16.09 45 км ливневой дождь 9/8 300 м
[]
+9.5 +7.2 86 995.0 984.8
15 16.09 35 км слаб. ливневой дождь 9/9 1000 м
[]
+9.4 +7.5 88 995.5 985.4
16 16.09 50 км в посл. час дождь 9/3 600 м
[]
+9.4 +7.4 87 995.7 985.6
17 16.09 50 км 9/3 300 м
[]
+9.1 +7.3 88 996.3 986.1
18 16.09 50 км в посл. час морось 10/10 1000 м
[]
+8.9 +6.3 84 996.7 986.5 +7.9 +10.7 0.8
19 16.09 50 км 8/8 300 м
[]
+8.4 +5.7 83 996.9 986.7
20 16.09 50 км ясно +7.8 +4.9 82 997.2 986.9
21 16.09 50 км 9/9 600 м
[]
+7.1 +4.8 85 997.4 987.1
22 16.09 50 км 9/6 1000 м
[]
+6.8 +4.7 86 997.4 987.1
23 16.09 50 км 9/0 1000 м
[]
+6.7 +4.6 86 997.4 987.1
00 17.09 50 км 9/9 1000 м
[]
+6.7 +3.9 82 997.3 987.0
01 17.09 50 км 8/0 1500 м
[]
+6.1 +3.6 84 997.1 986.8
02 17.09 50 км 9/0 1500 м
[]
+5.9 +3.3 83 997.2 986.9
03 17.09 50 км 9/9 1500 м
[]
+5.7 +3.2 84 997.1 986.8
04 17.09 50 км 9/6 1000 м
[]
+4.3 +3.3 93 997.1 986.7
05 17.09 50 км 1/1
[]
+3.9 +3.2 95 997.1 986.7
06 17.09 50 км ясно +5.9 +3.5 85 997.1 986.8 +3.6 +8.9
07 17.09 50 км 1/1
[]
+8.0 +3.2 72 996.9 986.7
08 17.09 45 км 3/0
[]
+9.6 +3.5 66 996.9 986.8
09 17.09 50 км 9/1 1000 м
[]
+10.3 +3.2 61 997.2 987.0
10 17.09 50 км 9/9 1000 м
[]
+10.2 +3.6 64 997.3 987.1
11 17.09 50 км 10/10 600 м
[]
+10.2 +3.2 62 997.5 987.3
12 17.09 50 км 5/5 1000 м
[]
+10.7 +2.7 58 997.6 987.5
13 17.09 50 км 9/0 1000 м
[]
+10.9 +2.6 57 997.6 987.5
14 17.09 50 км 9/9 1000 м
[]
+11.3 +3.6 59 997.6 987.4
15 17.09 50 км 1/1 1000 м
[]
+10.7 +3.0 59 997.7 987.5
16 17.09 50 км 8/1 1500 м
[]
+10.5 +3.7 63 997.8 987.6
17 17.09 50 км 10/0 1000 м
[]
+10.0 +4.6 69 998.0 987.9
18 17.09 50 км 10/10 1000 м
[]
+9.8 +5.8 76 998.3 988.1 +5.9 +12.2
19 17.09 23 км слаб. ливневой дождь 10/10 300 м
[]
+8.5 +7.4 93 998.8 988.5
20 17.09 20 км морось 10/10 300 м
[]
+8.1 +7.2 94 999.3 989.0
21 17.09 50 км осадки 9/9 200 м
[]
+7.8 +7.0 95 999.8 989.5
22 17.09 50 км в посл. час осадки 9/9
[]
+7.1 +6.5 96 1000.1 989.8
23 17.09 50 км 9/9 1000 м
[]
+6.5 +5.9 96 1000.6 990.3
00 18.09 50 км 10/10
[]
+6.3 +5.8 97 1001.1 990.8
01 18.09 40 км 10/1 1000 м
[]
+6.3 +5.8 97 1001.4 991.0
02 18.09 50 км 9/1 600 м
[]
+6.6 +5.7 94 1002.0 991.6
03 18.09 50 км 9/1 1500 м
[]
+6.0 +4.9 93 1002.5 992.1
04 18.09 50 км 10/10 1500 м
[]
+6.6 +5.5 93 1002.9 992.5
05 18.09 50 км 10/0 1000 м
[]
+6.7 +5.5 92 1003.5 993.1
06 18.09 50 км 1/1 1000 м
[]
+7.0 +5.0 87 1004.4 994.1 +5.6 +9.8 2
07 18.09 50 км ясно +8.3 +4.7 78 1005.0 994.7
08 18.09 50 км 1/0 600 м
[]
+9.0 +3.9 70 1005.6 995.3
09 18.09 50 км 1/1 600 м
[]
+9.6 +3.5 66 1006.1 995.8
10 18.09 45 км 4/4 1000 м
[]
+9.6 -0.1 51 1006.5 996.2
11 18.09 50 км 8/8 1000 м
[]
+10.4 +1.1 52 1007.0 996.7
12 18.09 50 км 3/3 1000 м
[]
+10.8 +0.4 49 1007.5 997.3
13 18.09 50 км 6/6 1500 м
[]
+11.1 +1.2 50 1007.7 997.5
14 18.09 50 км 10/0 1500 м
[]
+10.5 +1.4 53 1008.3 998.0
15 18.09 50 км ясно +9.8 +2.1 59 1008.9 998.6
16 18.09 50 км слаб. ливневой дождь 9/9 1000 м
[]
+8.1 +2.3 67 1009.5 999.2
17 18.09 50 км в посл. час осадки 6/6 1000 м
[]
+7.4 +2.5 71 1009.9 999.5
18 18.09 50 км 5/5 1000 м
[]
+4.9 +3.4 90 1010.7 1000.2 +4.9 +11.4
19 18.09 50 км ясно +3.2 +2.5 95 1011.2 1000.7
20 18.09 50 км ясно +1.9 +1.4 96 1011.6 1001.0
21 18.09 50 км ясно +0.9 +0.5 97 1011.9 1001.3
22 18.09 50 км 10/0
[]
+0.8 +0.5 98 1012.1 1001.4
23 18.09 45 км 10/10
[]
+1.1 +0.8 98 1012.3 1001.7
00 19.09 50 км 10/10
[]
+1.2 +1.0 99 1012.5 1001.9
01 19.09 50 км 9/9
[]
+1.3 +1.1 99 1012.6 1001.9
02 19.09 50 км 9/1
[]
+1.4 +1.2 99 1012.5 1001.9
03 19.09 45 км 9/0
[]
+0.9 +0.6 98 1012.5 1001.9
04 19.09 50 км 1/1
[]
+0.2 0.0 99 1012.7 1002.0
05 19.09 18 км 8/4 1500 м
[]
+1.6 +1.5 99 1012.7 1002.1
06 19.09 50 км 9/3 1000 м
[]
+4.6 +3.6 93 1012.8 1002.3 -0.1 +4.9
07 19.09 50 км 10/0 1000 м
[]
+5.7 +3.6 86 1013.2 1002.7
08 19.09 50 км 9/0 1000 м
[]
+7.7 +3.8 76 1013.4 1003.0
09 19.09 50 км 6/6 300 м
[]
+8.5 +3.8 72 1013.7 1003.3
10 19.09 50 км 9/9 600 м
[]
+9.6 +3.0 63 1013.8 1003.4
11 19.09 50 км 9/9 600 м
[]
+9.1 +2.1 62 1014.0 1003.6
12 19.09 14 км слаб. ливневой дождь 10/10 600 м
[]
+6.9 +4.4 84 1014.9 1004.4 0.1
13 19.09 50 км в посл. час дождь 9/9 600 м
[]
+8.6 +3.4 70 1014.8 1004.4
14 19.09 45 км ливневой дождь 6/6 600 м
[]
+8.0 +2.0 66 1015.0 1004.6
15 19.09 45 км осадки 9/9 600 м
[]
+6.1 +2.5 78 1015.8 1005.3
16 19.09 50 км в посл. час осадки 1/1 2000 м
[]
+6.2 +3.1 81 1016.1 1005.6
17 19.09 50 км ясно +5.9 +3.4 84 1016.6 1006.0
18 19.09 50 км в посл. час осадки 4/4 600 м
[]
+5.6 +2.7 82 1017.2 1006.7 +4.6 +9.9 0.1
19 19.09 50 км ясно +4.7 +2.6 86 1017.5 1006.9
20 19.09 50 км ясно +4.1 +2.1 87 1017.5 1006.9
21 19.09 50 км ясно +1.8 +1.0 94 1017.8 1007.1
22 19.09 50 км ясно 0.0 -0.5 96 1018.1 1007.3
23 19.09 50 км ясно -1.2 -1.6 97 1017.9 1007.1
00 20.09 50 км ясно -1.7 -1.9 99 1018.0 1007.2
01 20.09 50 км ясно -1.6 -1.9 98 1017.6 1006.8
02 20.09 50 км ясно -1.6 -1.9 98 1017.2 1006.4
03 20.09 50 км ясно -1.4 -1.7 98 1017.1 1006.3
04 20.09 50 км ясно -1.4 -1.6 99 1017.1 1006.3
05 20.09 40 км ясно -1.6 -1.8 99 1016.8 1006.0
06 20.09 45 км ясно +2.3 +2.2 99 1016.6 1005.9 -1.8 +5.6
07 20.09 45 км ясно +5.1 +2.5 83 1016.5 1005.9
08 20.09 45 км 8/0
[]
+7.3 +2.8 73 1016.2 1005.8
09 20.09 50 км 9/0
[]
+8.4 +2.4 66 1016.2 1005.8
10 20.09 50 км 9/0
[]
+9.3 +1.9 60 1015.9 1005.5
11 20.09 50 км 9/1 1000 м
[]
+9.8 +1.7 57 1015.5 1005.2
12 20.09 50 км 5/5 1000 м
[]
+10.0 +1.7 56 1015.1 1004.7
14 20.09 50 км 1/1 2000 м
[]
+9.5 +1.9 59 1014.3 1004.0
15 20.09 50 км 9/9
[]
+9.0 +3.0 66 1013.9 1003.5

 

Местоположение метеостанции Тампере (Финляндия): широта 61.47 долгота 23.75 высота над уровнем моря 85 м.

В архиве по умолчанию представлена погода в Тампере за последнюю неделю. Архивные данные за месяц целиком и за предыдущие месяцы, начиная с января 2011 года, Вы можете получить, выбрав интересующий диапазон дат из раскрывающегося списка и нажав кнопку "Ввод!".


*Определитесь, кто Вы:
робот инопланетянин человек

Внимание! Время в таблицах - всемирное. Для получения местного времени необходимо прибавить поправку, которая равна 1 ч.

Смотрите также архив погоды в соседних городах и на ближайших метеорологических станциях:

Погода в Тампере (Финляндия) (4 км)
Погода на Острове Сиилинкари (Финляндия) (6 км)
Погода в Аэропорту Пирккала (Финляндия) (9 км)
Погода в Лепаа (Финляндия) (50 км)
Погода в Юупайоки Хююеяля (Финляндия) (51 км)
Погода в Халли (Финляндия) (56 км)
Погода в Хямеэнлинна (Финляндия) (66 км)
Погода в Аэропорту Халли (Финляндия) (70 км)
Погода в Йокиойнене (Финляндия) (75 км)
Погода в Кокемяки (Финляндия) (79 км)

Пояснения к столбцам:

Ветер - указаны скорость ветра в м/с - средняя за 10 мин, порывы в срок и между сроками (в фигурных скобках) и направление, откуда дует ветер: С - северный, СВ - северо-восточный, В - восточный, ЮВ - юго-восточный, Ю - южный, ЮЗ - юго-западный, З - западный, СЗ - северо-западный.
Видимость - горизонтальная дальность видимости в метрах или километрах. При видимости от 1 до 10 км при отсутствии осадков обычно наблюдается дымка, при ухудшении видимости до 1 км и менее - туман. В сухую погоду видимость может ухудшаться дымом, пылью или мглою.
Явления - указаны атмосферные явления, наблюдавшиеся в срок или в последний час перед сроком; фигурными скобками обозначены явления, наблюдавшиеся между сроками (за 1-3 часа до срока); квадратными скобками обозначены град или гололедные отложения с указанием их диаметра в мм.
Облачность - указаны через наклонную черту общая и нижняя облачность в баллах и высота нижней границы облаков в метрах; квадратными скобками обозначены формы облаков: Ci - перистые, Cs - перисто-слоистые, Cc - перисто-кучевые, Ac - высококучевые, As - высокослоистые, Sc - слоисто-кучевые, Ns - слоисто-дождевые, Cu - кучевые, Cb - кучево-дождевые. Подробнее классификацию облаков см. в Атласе облаков (PDF).
T - Температура воздуха - температура, измеренная на высоте 2 м над землей.
Td - Температура точки росы - температура, при понижении до которой содержащийся в воздухе водяной пар достигнет насыщения.
f - Относительная влажность воздуха - влажноcть воздуха, измеренная на высоте 2 м над землей.
Te - Эффективная температура - температура, которую ощущает одетый по сезону человек в тени. Характеристика душности погоды. При расчете учитывается влияние влажности воздуха и скорости ветра на теплоощущения человека.
Tes - Эффективная температура на солнце - температура, которую ощущает человек, с поправкой на солнечный нагрев. Характеристика знойности погоды. Зависит от высоты солнца над горизонтом, облачности и скорости ветра. Ночью, в пасмурную погоду, а также при ветре 12 м/с и более поправка равна нулю.
P - Атмосферное давление - приведенное к уровню моря атмосферное давление.
Po - Атмосферное давление - измеренное на уровне метеостанции атмосферное давление.
Tmin - Минимальная температура - минимум температуры воздуха на высоте 2 м над землей.
Tmax - Максимальная температура - максимум температуры воздуха на высоте 2 м над землей.
R - Количество осадков - Количество выпавших осадков за период времени, мм. При наведении курсора мыши на число - период времени, за который выпало указанное количество осадков.
R24 - Количество осадков - Количество выпавших осадков за 24 часа, мм.
S - Снежный покров - Высота снежного покрова, см. При наведении курсора мыши на число - состояние снежного покрова и степень покрытия местности в баллах.